Surface/Precipitation History
02/08/2018 19:48  to  2/9/2018 19:48
Change End Date:
Date/Time
(MDT)
Sf
Temp Chem Water Layer Surface Precipitation
Sfc Pvt Sub Frz Factor Pct Dpth DpthThk IcePct Cond Salin FI Type Intens Accum Rate
02/09/2018 19:40 Dry 1.2F - 16F - - - - - - 0 mhos 6 - None None - -
02/09/2018 19:38 Dry 1.4F - 16F - - - - - - 0 mhos 6 - None None - -
02/09/2018 19:30 Dry 1.9F - 16F - - - - - - 0 mhos 6 - None None - -
02/09/2018 19:23 Dry 2.5F - 16F - - - - - - 0 mhos 6 - None None - -
02/09/2018 19:20 Dry 2.5F - 16F - - - - - - 0 mhos 6 - None None - -
02/09/2018 19:10 Dry 3.0F - 16F - - - - - - 0 mhos 7 - None None - -
02/09/2018 19:08 Dry 3.4F - 16F - - - - - - 0 mhos 7 - None None - -
02/09/2018 19:00 Dry 3.4F - 16F - - - - - - 0 mhos 7 - None None - -
02/09/2018 18:53 Dry 3.6F - 16F - - - - - - 0 mhos 7 - None None - -
02/09/2018 18:50 Dry 3.6F - 16F - - - - - - 0 mhos 7 - None None - -
02/09/2018 18:40 Dry 4.3F - 16F - - - - - - 0 mhos 7 - None None - -
02/09/2018 18:37 Dry 4.3F - 16F - - - - - - 0 mhos 7 - None None - -
02/09/2018 18:30 Dry 4.6F - 16F - - - - - - 0 mhos 7 - None None - -
02/09/2018 18:22 Dry 5.2F - 16F - - - - - - 0 mhos 7 - None None - -
02/09/2018 18:20 Dry 5.2F - 16F - - - - - - 0 mhos 7 - None None - -
Date/Time
(MDT)
Sf
Temp Chem Water Layer Surface Precipitation
Sfc Pvt Sub Frz Factor Pct Dpth DpthThk IcePct Cond Salin FI Type Intens Accum Rate
02/09/2018 18:10 Dry 5.5F - 16F - - - - - - 0 mhos 7 - None None - -
02/09/2018 18:07 Dry 5.5F - 16F - - - - - - 0 mhos 7 - None None - -
02/09/2018 18:00 Dry 5.7F - 16F - - - - - - 0 mhos 7 - None None - -
02/09/2018 17:52 Dry 6.1F - 16F - - - - - - 0 mhos 7 - None None - -
02/09/2018 17:50 Dry 6.1F - 16F - - - - - - 0 mhos 7 - None None - -
02/09/2018 17:40 Dry 6.4F - 16F - - - - - - 0 mhos 7 - None None - -
02/09/2018 17:37 Dry 6.6F - 16F - - - - - - 0 mhos 7 - None None - -
02/09/2018 17:30 Dry 7.0F - 16F - - - - - - 0 mhos 7 - None None - -
02/09/2018 17:22 Dry 7.3F - 16F - - - - - - 0 mhos 7 - None None - -
02/09/2018 17:20 Dry 7.7F - 16F - - - - - - 0 mhos 7 - None None - -
02/09/2018 17:10 Dry 8.6F - 16F - - - - - - 0 mhos 9 - None None - -
02/09/2018 17:07 Dry 9.1F - 16F - - - - - - 0 mhos 8 - None None - -
02/09/2018 17:00 Dry 9.7F - 16F - - - - - - 0 mhos 10 - None None - -
02/09/2018 16:52 Dry 10.6F - 16F - - - - - - 0 mhos 10 - None None - -
02/09/2018 16:50 Dry 10.8F - 16F - - - - - - 0 mhos 10 - None None - -
Date/Time
(MDT)
Sf
Temp Chem Water Layer Surface Precipitation
Sfc Pvt Sub Frz Factor Pct Dpth DpthThk IcePct Cond Salin FI Type Intens Accum Rate
02/09/2018 16:40 Dry 12.2F - 15F - - - - - - 0 mhos 10 - None None - -
02/09/2018 16:37 Dry 12.9F - 15F - - - - - - 0 mhos 11 - None None - -
02/09/2018 16:30 Dry 15.4F - 15F - - - - - - 0 mhos 10 - None None - -
02/09/2018 16:22 Dry 18.1F - 15F - - - - - - 0 mhos 0 - None None - -
02/09/2018 16:20 Dry 18.5F - 15F - - - - - - 0 mhos 0 - None None - -
02/09/2018 16:10 Dry 19.9F - 15F - - - - - - 0 mhos 0 - None None - -
02/09/2018 16:07 Dry 21.0F - 15F - - - - - - 0 mhos 0 - None None - -
02/09/2018 16:00 Dry 21.7F - 15F - - - - - - 0 mhos 0 - None None - -
02/09/2018 15:52 Dry 22.5F - 15F - - - - - - 0 mhos 0 - None None - -
02/09/2018 15:50 Dry 22.5F - 15F - - - - - - 0 mhos 0 - None None - -
02/09/2018 15:40 Dry 23.5F - 15F - - - - - - 0 mhos 1 - None None - -
02/09/2018 15:37 Dry 23.5F - 15F - - - - - - 0 mhos 1 - None None - -
02/09/2018 15:30 Dry 25.0F - 15F - - - - - - 0 mhos 0 - None None - -
02/09/2018 15:22 Dry 25.9F - 15F - - - - - - 0 mhos 0 - None None - -
02/09/2018 15:20 Dry 26.4F - 15F - - - - - - 0 mhos 0 - None None - -
Date/Time
(MDT)
Sf
Temp Chem Water Layer Surface Precipitation
Sfc Pvt Sub Frz Factor Pct Dpth DpthThk IcePct Cond Salin FI Type Intens Accum Rate
02/09/2018 15:10 Dry 26.8F - 15F - - - - - - 0 mhos 0 - None None - -
02/09/2018 15:07 Dry 26.4F - 15F - - - - - - 0 mhos 0 - None None - -
02/09/2018 15:00 Dry 26.8F - 15F - - - - - - 0 mhos 1 - None None - -
02/09/2018 14:52 Dry 27.7F - 15F - - - - - - 0 mhos 0 - None None - -
02/09/2018 14:50 Dry 27.5F - 15F - - - - - - 0 mhos 0 - None None - -
02/09/2018 14:40 Dry 27.9F - 15F - - - - - - 0 mhos 3 - None None - -
02/09/2018 14:37 Dry 27.5F - 15F - - - - - - 0 mhos 4 - None None - -
02/09/2018 14:30 Dry 28.0F - 15F - - - - - - 0 mhos 7 - None None - -
02/09/2018 14:22 Dry 28.8F - 15F - - - - - - 0 mhos 0 - None None - -
02/09/2018 14:19 Dry 28.6F - 15F - - - - - - 0 mhos 0 - None None - -
02/09/2018 14:09 Dry 28.2F - 15F - - - - - - 0 mhos 0 - None None - -
02/09/2018 14:07 Dry 28.0F - 15F - - - - - - 0 mhos 0 - None None - -
02/09/2018 13:59 Dry 28.4F - 15F - - - - - - 0 mhos 0 - None None - -
02/09/2018 13:52 Dry 28.2F - 15F - - - - - - 0 mhos 0 - None None - -
02/09/2018 13:49 Dry 28.2F - 15F - - - - - - 0 mhos 0 - None None - -
Date/Time
(MDT)
Sf
Temp Chem Water Layer Surface Precipitation
Sfc Pvt Sub Frz Factor Pct Dpth DpthThk IcePct Cond Salin FI Type Intens Accum Rate
02/09/2018 13:39 Dry 27.7F - 15F - - - - - - 0 mhos 0 - None None - -
02/09/2018 13:37 Dry 27.9F - 15F - - - - - - 0 mhos 0 - None None - -
02/09/2018 13:29 Dry 28.2F - 15F - - - - - - 0 mhos 0 - Yes - - -
02/09/2018 13:22 Dry 28.0F - 15F - - - - - - 0 mhos 0 - None None - -
02/09/2018 13:19 Dry 27.9F - 15F - - - - - - 0 mhos 0 - None None - -
02/09/2018 13:09 Dry 27.9F - 15F - - - - - - 0 mhos 0 - None None - -
02/09/2018 13:07 Dry 27.1F - 15F - - - - - - 0 mhos 0 - None None - -
02/09/2018 12:59 Dry 26.6F - 15F - - - - - - 0 mhos 0 - None None - -
02/09/2018 12:52 Dry 26.1F - 15F - - - - - - 0 mhos 6 - None None - -
02/09/2018 12:49 Dry 26.2F - 15F - - - - - - 0 mhos 7 - None None - -
02/09/2018 12:39 Dry 25.7F - 15F - - - - - - 0 mhos 8 - None None - -
02/09/2018 12:37 Dry 25.2F - 15F - - - - - - 0 mhos 8 - None None - -
02/09/2018 12:29 Dry 24.6F - 15F - - - - - - 0 mhos 8 - None None - -
02/09/2018 12:22 Dry 24.6F - 15F - - - - - - 0 mhos 9 - None None - -
02/09/2018 12:19 Dry 24.6F - 15F - - - - - - 0 mhos 9 - None None - -
Date/Time
(MDT)
Sf
Temp Chem Water Layer Surface Precipitation
Sfc Pvt Sub Frz Factor Pct Dpth DpthThk IcePct Cond Salin FI Type Intens Accum Rate
02/09/2018 12:09 Dry 23.5F - 15F - - - - - - 0 mhos 9 - None None - -
02/09/2018 12:07 Dry 23.7F - 15F - - - - - - 0 mhos 9 - None None - -
02/09/2018 11:59 Dry 23.2F - 15F - - - - - - 0 mhos 9 - None None - -
02/09/2018 11:52 Dry 22.1F - 15F - - - - - - 0 mhos 9 - None None - -
02/09/2018 11:49 Dry 21.4F - 15F - - - - - - 0 mhos 9 - None None - -
02/09/2018 11:39 Dry 20.3F - 15F - - - - - - 0 mhos 10 - None None - -
02/09/2018 11:37 Dry 20.1F - 15F - - - - - - 0 mhos 10 - None None - -
02/09/2018 11:29 Dry 19.4F - 15F - - - - - - 0 mhos 11 - None None - -
02/09/2018 11:22 Dry 17.8F - 15F - - - - - - 0 mhos 10 - None None - -
02/09/2018 11:19 Dry 17.8F - 15F - - - - - - 0 mhos 11 - None None - -
02/09/2018 11:09 Dry 16.7F - 15F - - - - - - 0 mhos 11 - None None - -
02/09/2018 11:07 Dry 16.3F - 15F - - - - - - 0 mhos 11 - None None - -
02/09/2018 10:59 Dry 15.1F - 15F - - - - - - 0 mhos 13 - None None - -
02/09/2018 10:52 Dry 14.2F - 15F - - - - - - 0 mhos 13 - None None - -
02/09/2018 10:49 Dry 14.0F - 15F - - - - - - 0 mhos 13 - None None - -
Date/Time
(MDT)
Sf
Temp Chem Water Layer Surface Precipitation
Sfc Pvt Sub Frz Factor Pct Dpth DpthThk IcePct Cond Salin FI Type Intens Accum Rate
02/09/2018 10:39 Dry 12.6F - 15F - - - - - - 0 mhos 13 - None None - -
02/09/2018 10:37 Dry 12.2F - 15F - - - - - - 0 mhos 13 - None None - -
02/09/2018 10:29 Dry 11.3F - 15F - - - - - - 0 mhos 13 - None None - -
02/09/2018 10:22 Dry 10.4F - 15F - - - - - - 0 mhos 16 - None None - -
02/09/2018 10:19 Dry 9.9F - 15F - - - - - - 0 mhos 16 - None None - -
02/09/2018 10:09 Ice Warning 8.8F - 15F 32F 5 0% - - 100% 0 mhos 16 - None None - -
02/09/2018 10:07 Dry 8.6F - 15F - - - - - - 0 mhos 16 - None None - -
02/09/2018 09:59 Dry 7.5F - 15F - - - - - - 0 mhos 16 - None None - -
02/09/2018 09:52 Dry 6.4F - 15F - - - - - - 0 mhos 16 - Yes - - -
02/09/2018 09:49 Dry 5.9F - 15F - - - - - - 0 mhos 16 - None None - -
02/09/2018 09:39 Dry 4.1F - 15F - - - - - - 0 mhos 16 - None None - -
02/09/2018 09:37 Dry 3.7F - 15F - - - - - - 0 mhos 18 - None None - -
02/09/2018 09:29 Dry 1.0F - 15F - - - - - - 0 mhos 17 - None None - -
02/09/2018 09:22 Dry -0.4F - 15F - - - - - - 0 mhos 17 - None None - -
02/09/2018 09:19 Dry -0.4F - 15F - - - - - - 0 mhos 17 - None None - -
Date/Time
(MDT)
Sf
Temp Chem Water Layer Surface Precipitation
Sfc Pvt Sub Frz Factor Pct Dpth DpthThk IcePct Cond Salin FI Type Intens Accum Rate
02/09/2018 09:09 Dry -0.4F - 15F - - - - - - 0 mhos 17 - None None - -
02/09/2018 09:07 Ice Warning -0.6F - 15F 32F 5 0% - - 100% 0 mhos 17 - None None - -
02/09/2018 08:59 Ice Warning -0.9F - 15F 32F 5 0% - - 100% 0 mhos 17 - None None - -
02/09/2018 08:52 Ice Warning -0.9F - 15F 32F 5 0% - - 100% 0 mhos 17 - None None - -
02/09/2018 08:49 Ice Warning -1.1F - 15F 32F 5 0% - - 100% 0 mhos 17 - None None - -
02/09/2018 08:39 Ice Warning -1.1F - 15F 32F 5 0% - - 100% 0 mhos 17 - None None - -
02/09/2018 08:37 Ice Warning -1.1F - 15F 32F 5 0% - - 100% 0 mhos 17 - None None - -
02/09/2018 08:29 Ice Warning -1.3F - 15F 32F 5 0% - - 100% 0 mhos 17 - None None - -
02/09/2018 08:21 Ice Warning -1.5F - 16F 32F 5 0% - - 100% 0 mhos 17 - None None - -
02/09/2018 08:18 Ice Warning -1.5F - 16F 32F 5 0% - - 100% 0 mhos 17 - None None - -
02/09/2018 08:08 Ice Warning -1.7F - 16F 32F 5 0% - - 100% 0 mhos 17 - None None - -
02/09/2018 08:06 Ice Warning -1.7F - 16F 32F 5 0% - - 100% 0 mhos 17 - None None - -
02/09/2018 07:58 Ice Warning -1.8F - 16F 32F 5 0% - - 100% 0 mhos 17 - None None - -
02/09/2018 07:51 Ice Warning -2.0F - 16F 32F 5 0% - - 100% 0 mhos 17 - None None - -
02/09/2018 07:48 Ice Warning -2.0F - 16F 32F 5 0% - - 100% 0 mhos 17 - None None - -
Date/Time
(MDT)
Sf
Temp Chem Water Layer Surface Precipitation
Sfc Pvt Sub Frz Factor Pct Dpth DpthThk IcePct Cond Salin FI Type Intens Accum Rate
02/09/2018 07:38 Ice Warning -2.0F - 16F 32F 5 0% - - 100% 0 mhos 17 - None None - -
02/09/2018 07:36 Ice Warning -2.0F - 16F 32F 5 0% - - 100% 0 mhos 17 - None None - -
02/09/2018 07:28 Ice Warning -1.8F - 16F 32F 5 0% - - 100% 0 mhos 17 - None None - -
02/09/2018 07:22 Ice Warning -1.7F - 16F 32F 5 0% - - 100% 0 mhos 17 - None None - -
02/09/2018 07:18 Ice Warning -1.8F - 16F 32F 5 0% - - 100% 0 mhos 17 - None None - -
02/09/2018 07:08 Ice Warning -1.7F - 16F 32F 5 0% - - 100% 0 mhos 17 - None None - -
02/09/2018 07:08 Ice Warning -1.7F - 16F 32F 5 0% - - 100% 0 mhos 17 - None None - -
02/09/2018 06:58 Ice Warning -1.7F - 16F 32F 5 0% - - 100% 0 mhos 17 - None None - -
02/09/2018 06:53 Ice Warning -1.7F - 16F 32F 5 0% - - 100% 0 mhos 17 - None None - -
02/09/2018 06:48 Ice Warning -1.7F - 16F 32F 5 0% - - 100% 0 mhos 17 - None None - -
02/09/2018 06:38 Ice Warning -1.7F - 16F 32F 5 0% - - 100% 0 mhos 17 - None None - -
02/09/2018 06:38 Ice Warning -1.7F - 16F 32F 5 0% - - 100% 0 mhos 17 - None None - -
02/09/2018 06:28 Ice Warning -1.7F - 16F 32F 5 0% - - 100% 0 mhos 17 - None None - -
02/09/2018 06:23 Ice Warning -1.7F - 16F 32F 5 0% - - 100% 0 mhos 17 - None None - -
02/09/2018 06:18 Ice Warning -1.5F - 16F 32F 5 0% - - 100% 0 mhos 17 - None None - -
Date/Time
(MDT)
Sf
Temp Chem Water Layer Surface Precipitation
Sfc Pvt Sub Frz Factor Pct Dpth DpthThk IcePct Cond Salin FI Type Intens Accum Rate
02/09/2018 06:08 Ice Warning -1.1F - 16F 32F 5 0% - - 100% 0 mhos 17 - None None - -
02/09/2018 06:08 Ice Warning -1.1F - 16F 32F 5 0% - - 100% 0 mhos 17 - None None - -
02/09/2018 05:58 Ice Warning -1.1F - 16F 32F 5 0% - - 100% 0 mhos 17 - None None - -
02/09/2018 05:53 Ice Warning -0.9F - 16F 32F 5 0% - - 100% 0 mhos 17 - None None - -
02/09/2018 05:48 Ice Warning -0.4F - 16F 32F 5 0% - - 100% 0 mhos 18 - None None - -
02/09/2018 05:38 Ice Warning 0.1F - 16F 32F 5 0% - - 100% 0 mhos 18 - None None - -
02/09/2018 05:38 Ice Warning 0.1F - 16F 32F 5 0% - - 100% 0 mhos 18 - None None - -
02/09/2018 05:28 Ice Warning 0.3F - 16F 32F 5 0% - - 100% 0 mhos 18 - None None - -
02/09/2018 05:23 Ice Warning 0.3F - 16F 32F 5 0% - - 100% 0 mhos 18 - None None - -
02/09/2018 05:18 Ice Warning 0.5F - 16F 32F 5 0% - - 100% 0 mhos 18 - None None - -
02/09/2018 05:08 Ice Warning 0.5F - 16F 32F 5 0% - - 100% 0 mhos 18 - None None - -
02/09/2018 05:08 Ice Warning 0.5F - 16F 32F 5 0% - - 100% 0 mhos 18 - None None - -
02/09/2018 04:58 Ice Warning 0.9F - 16F 32F 5 0% - - 100% 0 mhos 19 - None None - -
02/09/2018 04:52 Ice Warning 0.9F - 16F 32F 5 0% - - 100% 0 mhos 19 - None None - -
02/09/2018 04:48 Ice Warning 0.9F - 16F 32F 5 0% - - 100% 0 mhos 19 - None None - -
Date/Time
(MDT)
Sf
Temp Chem Water Layer Surface Precipitation
Sfc Pvt Sub Frz Factor Pct Dpth DpthThk IcePct Cond Salin FI Type Intens Accum Rate
02/09/2018 04:38 Ice Warning 1.0F - 16F 32F 5 0% - - 100% 0 mhos 19 - None None - -
02/09/2018 04:37 Ice Warning 1.0F - 16F 32F 5 0% - - 100% 0 mhos 19 - None None - -
02/09/2018 04:28 Ice Warning 1.2F - 16F 32F 5 0% - - 100% 0 mhos 19 - None None - -
02/09/2018 04:22 Ice Warning 1.2F - 16F 32F 5 0% - - 100% 0 mhos 19 - None None - -
02/09/2018 04:18 Ice Warning 1.4F - 16F 32F 5 0% - - 100% 0 mhos 19 - None None - -
02/09/2018 04:08 Ice Warning 1.8F - 16F 32F 5 0% - - 100% 0 mhos 19 - None None - -
02/09/2018 04:07 Ice Warning 1.8F - 16F 32F 5 0% - - 100% 0 mhos 19 - None None - -
02/09/2018 03:58 Ice Warning 2.1F - 16F 32F 5 0% - - 100% 0 mhos 19 - None None - -
02/09/2018 03:53 Ice Warning 2.3F - 16F 32F 5 0% - - 100% 0 mhos 19 - None None - -
02/09/2018 03:48 Ice Warning 2.5F - 16F 32F 5 0% - - 100% 0 mhos 19 - None None - -
02/09/2018 03:38 Ice Warning 3.2F - 17F 32F 5 0% - - 100% 0 mhos 19 - None None - -
02/09/2018 03:37 Ice Warning 3.2F - 17F 32F 5 0% - - 100% 0 mhos 19 - None None - -
02/09/2018 03:28 Ice Warning 3.7F - 17F 32F 5 0% - - 100% 0 mhos 20 - None None - -
02/09/2018 03:22 Ice Warning 3.7F - 17F 32F 5 0% - - 100% 0 mhos 20 - None None - -
02/09/2018 03:18 Ice Warning 3.9F - 17F 32F 5 0% - - 100% 0 mhos 20 - None None - -
Date/Time
(MDT)
Sf
Temp Chem Water Layer Surface Precipitation
Sfc Pvt Sub Frz Factor Pct Dpth DpthThk IcePct Cond Salin FI Type Intens Accum Rate
02/09/2018 03:08 Ice Warning 3.9F - 17F 32F 5 0% - - 100% 0 mhos 20 - None None - -
02/09/2018 03:08 Ice Warning 3.9F - 17F 32F 5 0% - - 100% 0 mhos 20 - None None - -
02/09/2018 02:58 Ice Warning 3.9F - 17F 32F 5 0% - - 100% 0 mhos 20 - None None - -
02/09/2018 02:53 Ice Warning 3.9F - 17F 32F 5 0% - - 100% 0 mhos 20 - None None - -
02/09/2018 02:48 Ice Warning 3.7F - 17F 32F 5 0% - - 100% 0 mhos 20 - None None - -
02/09/2018 02:38 Ice Warning 3.7F - 17F 32F 5 0% - - 100% 0 mhos 20 - None None - -
02/09/2018 02:37 Ice Warning 3.7F - 17F 32F 5 0% - - 100% 0 mhos 20 - None None - -
02/09/2018 02:28 Ice Warning 3.7F - 17F 32F 5 0% - - 100% 0 mhos 20 - None None - -
02/09/2018 02:22 Ice Warning 3.7F - 17F 32F 5 0% - - 100% 0 mhos 20 - None None - -
02/09/2018 02:17 Ice Warning 3.7F - 17F 32F 5 0% - - 100% 0 mhos 20 - None None - -
02/09/2018 02:08 Ice Warning 3.7F - 17F 32F 5 0% - - 100% 0 mhos 20 - None None - -
02/09/2018 02:07 Ice Warning 3.7F - 17F 32F 5 0% - - 100% 0 mhos 20 - None None - -
02/09/2018 01:57 Ice Warning 3.9F - 17F 32F 5 0% - - 100% 0 mhos 20 - None None - -
02/09/2018 01:52 Ice Warning 4.1F - 17F 32F 5 0% - - 100% 0 mhos 20 - None None - -
02/09/2018 01:47 Ice Warning 4.3F - 17F 32F 5 0% - - 100% 0 mhos 20 - None None - -
Date/Time
(MDT)
Sf
Temp Chem Water Layer Surface Precipitation
Sfc Pvt Sub Frz Factor Pct Dpth DpthThk IcePct Cond Salin FI Type Intens Accum Rate
02/09/2018 01:37 Ice Warning 4.6F - 17F 32F 5 0% - - 100% 0 mhos 20 - None None - -
02/09/2018 01:37 Ice Warning 4.6F - 17F 32F 5 0% - - 100% 0 mhos 20 - None None - -
02/09/2018 01:27 Ice Warning 4.8F - 17F 32F 5 0% - - 100% 0 mhos 20 - None None - -
02/09/2018 01:22 Ice Warning 4.8F - 17F 32F 5 0% - - 100% 0 mhos 20 - None None - -
02/09/2018 01:17 Ice Warning 4.8F - 17F 32F 5 0% - - 100% 0 mhos 20 - None None - -
02/09/2018 01:07 Ice Warning 5.0F - 17F 32F 5 0% - - 100% 0 mhos 20 - None None - -
02/09/2018 01:07 Ice Warning 5.0F - 17F 32F 5 0% - - 100% 0 mhos 20 - None None - -
02/09/2018 00:57 Ice Warning 5.0F - 17F 32F 5 0% - - 100% 0 mhos 20 - None None - -
02/09/2018 00:53 Ice Warning 5.0F - 17F 32F 5 0% - - 100% 0 mhos 20 - None None - -
02/09/2018 00:47 Ice Warning 4.8F - 17F 32F 5 0% - - 100% 0 mhos 20 - None None - -
02/09/2018 00:38 Ice Warning 4.8F - 17F 32F 5 0% - - 100% 0 mhos 20 - None None - -
02/09/2018 00:37 Ice Warning 4.8F - 17F 32F 5 0% - - 100% 0 mhos 20 - None None - -
02/09/2018 00:27 Ice Warning 5.0F - 17F 32F 5 0% - - 100% 0 mhos 20 - None None - -
02/09/2018 00:22 Ice Warning 5.0F - 17F 32F 5 0% - - 100% 0 mhos 20 - None None - -
02/09/2018 00:17 Ice Warning 5.0F - 17F 32F 5 0% - - 100% 0 mhos 21 - None None - -
Date/Time
(MDT)
Sf
Temp Chem Water Layer Surface Precipitation
Sfc Pvt Sub Frz Factor Pct Dpth DpthThk IcePct Cond Salin FI Type Intens Accum Rate
02/09/2018 00:07 Ice Warning 5.0F - 17F 32F 5 0% - - 100% 0 mhos 20 - None None - -
02/09/2018 00:07 Ice Warning 5.0F - 17F 32F 5 0% - - 100% 0 mhos 20 - None None - -
02/08/2018 23:57 Ice Warning 4.8F - 17F 32F 5 0% - - 100% 0 mhos 20 - None None - -
02/08/2018 23:53 Ice Warning 4.6F - 17F 32F 5 0% - - 100% 0 mhos 21 - None None - -
02/08/2018 23:47 Ice Warning 4.8F - 17F 32F 5 0% - - 100% 0 mhos 21 - None None - -
02/08/2018 23:37 Ice Warning 4.8F - 17F 32F 5 0% - - 100% 0 mhos 21 - None None - -
02/08/2018 23:37 Ice Warning 4.6F - 17F 32F 5 0% - - 100% 0 mhos 21 - None None - -
02/08/2018 23:27 Ice Warning 4.6F - 17F 32F 5 0% - - 100% 0 mhos 21 - Yes - - -
02/08/2018 23:23 Ice Warning 4.8F - 17F 32F 5 0% - - 100% 0 mhos 21 - None None - -
02/08/2018 23:17 Ice Warning 4.8F - 17F 32F 5 0% - - 100% 0 mhos 21 - None None - -
02/08/2018 23:08 Ice Warning 4.8F - 17F 32F 5 0% - - 100% 0 mhos 20 - None None - -
02/08/2018 23:07 Ice Warning 4.8F - 17F 32F 5 0% - - 100% 0 mhos 21 - None None - -
02/08/2018 22:57 Ice Warning 4.8F - 17F 32F 5 0% - - 100% 0 mhos 21 - None None - -
02/08/2018 22:53 Ice Warning 4.8F - 17F 32F 5 0% - - 100% 0 mhos 21 - Yes - - -
02/08/2018 22:47 Ice Warning 4.8F - 17F 32F 5 0% - - 100% 0 mhos 21 - None None - -
Date/Time
(MDT)
Sf
Temp Chem Water Layer Surface Precipitation
Sfc Pvt Sub Frz Factor Pct Dpth DpthThk IcePct Cond Salin FI Type Intens Accum Rate
02/08/2018 22:38 Ice Warning 4.8F - 17F 32F 5 0% - - 100% 0 mhos 21 - None None - -
02/08/2018 22:37 Ice Warning 4.8F - 17F 32F 5 0% - - 100% 0 mhos 21 - None None - -
02/08/2018 22:27 Ice Warning 5.0F - 17F 32F 5 0% - - 100% 0 mhos 20 - None None - -
02/08/2018 22:23 Ice Warning 4.8F - 17F 32F 5 0% - - 100% 0 mhos 21 - None None - -
02/08/2018 22:17 Ice Warning 4.8F - 17F 32F 5 0% - - 100% 0 mhos 21 - None None - -
02/08/2018 22:08 Ice Warning 4.6F - 17F 32F 5 0% - - 100% 0 mhos 21 - None None - -
02/08/2018 22:07 Ice Warning 4.6F - 17F 32F 5 0% - - 100% 0 mhos 21 - None None - -
02/08/2018 21:57 Ice Warning 4.6F - 17F 32F 5 0% - - 100% 0 mhos 20 - None None - -
02/08/2018 21:53 Ice Warning 4.6F - 17F 32F 5 0% - - 100% 0 mhos 20 - None None - -
02/08/2018 21:47 Ice Warning 4.6F - 18F 32F 5 0% - - 100% 0 mhos 21 - None None - -
02/08/2018 21:38 Ice Warning 4.6F - 18F 32F 5 0% - - 100% 0 mhos 21 - None None - -
02/08/2018 21:37 Ice Warning 4.6F - 18F 32F 5 0% - - 100% 0 mhos 21 - None None - -
02/08/2018 21:26 Ice Warning 4.8F - 18F 32F 5 0% - - 100% 0 mhos 21 - None None - -
02/08/2018 21:23 Ice Warning 5.0F - 18F 32F 5 0% - - 100% 0 mhos 20 - None None - -
02/08/2018 21:16 Ice Warning 5.2F - 18F 32F 5 0% - - 100% 0 mhos 21 - None None - -
Date/Time
(MDT)
Sf
Temp Chem Water Layer Surface Precipitation
Sfc Pvt Sub Frz Factor Pct Dpth DpthThk IcePct Cond Salin FI Type Intens Accum Rate
02/08/2018 21:08 Ice Warning 5.0F - 18F 32F 5 0% - - 100% 0 mhos 21 - None None - -
02/08/2018 21:06 Ice Warning 5.0F - 18F 32F 5 0% - - 100% 0 mhos 21 - None None - -
02/08/2018 20:56 Ice Warning 5.0F - 18F 32F 5 0% - - 100% 0 mhos 21 - None None - -
02/08/2018 20:53 Ice Warning 5.0F - 18F 32F 5 0% - - 100% 0 mhos 21 - None None - -
02/08/2018 20:46 Ice Warning 5.0F - 18F 32F 5 0% - - 100% 0 mhos 21 - None None - -
02/08/2018 20:38 Ice Warning 5.2F - 18F 32F 5 0% - - 100% 0 mhos 21 - None None - -
02/08/2018 20:36 Ice Warning 5.2F - 18F 32F 5 0% - - 100% 0 mhos 21 - None None - -
02/08/2018 20:26 Ice Warning 5.4F - 18F 32F 5 0% - - 100% 0 mhos 21 - None None - -
02/08/2018 20:23 Ice Warning 5.4F - 18F 32F 5 0% - - 100% 0 mhos 21 - None None - -
02/08/2018 20:16 Ice Warning 5.4F - 18F 32F 5 0% - - 100% 0 mhos 21 - None None - -
02/08/2018 20:08 Ice Warning 5.5F - 18F 32F 5 0% - - 100% 0 mhos 21 - None None - -
02/08/2018 20:06 Ice Warning 5.5F - 18F 32F 5 0% - - 100% 0 mhos 21 - None None - -
02/08/2018 19:56 Ice Warning 5.5F - 18F 32F 5 0% - - 100% 0 mhos 21 - None None - -
02/08/2018 19:53 Ice Warning 5.5F - 18F 32F 5 0% - - 100% 0 mhos 21 - None None - -
Change End Date:

Copyright © 1998-2015 Vaisala, Inc.
All Rights Reserved
Send comments about the data to:
SCAN Web ® is a registered trademark of Vaisala, Inc.
SCAN Web Version 6.0